• In Russia
  • List of Countries
  • For 7 days
  • Water Temperature
  • Satellite Maps
  • Weather Map
  • Weather Widgets
  • user-avatar
    Login

    Hourly Weather Nakhchivan

    Today, 18 October, Thursday

    Time Temperature Precipitation Wind Pressure Humidity
    00:00 +16°C° 0 mm 1 mps 691 mmHg 58%
    01:00 +16°C° 0 mm 1 mps 691 mmHg 60%
    02:00 +16°C° 0 mm 1 mps 691 mmHg 61%
    03:00 +15°C° 0 mm 1 mps 690 mmHg 63%
    04:00 +15°C° 0 mm 1 mps 690 mmHg 63%
    05:00 +15°C° 0 mm 1 mps 690 mmHg 64%
    06:00 +14°C° 0 mm 1 mps 690 mmHg 65%
    07:00 +16°C° 0 mm 1 mps 690 mmHg 58%
    08:00 +19°C° 0 mm 1 mps 691 mmHg 51%
    09:00 +20°C° 0 mm 1 mps 691 mmHg 44%
    10:00 +21°C° 0 mm 1 mps 691 mmHg 41%
    11:00 +22°C° 0 mm 1 mps 691 mmHg 38%
    12:00 +23°C° 0 mm 1 mps 691 mmHg 34%
    13:00 +24°C° 0 mm 1 mps 690 mmHg 33%
    14:00 +24°C° 0 mm 2 mps 690 mmHg 31%
    15:00 +24°C° 0 mm 2 mps 690 mmHg 30%
    16:00 +23°C° 0 mm 1 mps 690 mmHg 33%
    17:00 +22°C° 0 mm 1 mps 690 mmHg 36%
    18:00 +21°C° 0 mm 1 mps 690 mmHg 38%
    19:00 +20°C° 0 mm 1 mps 690 mmHg 41%
    20:00 +20°C° 0 mm 1 mps 690 mmHg 43%
    21:00 +19°C° 0 mm 1 mps 690 mmHg 46%
    22:00 +19°C° 0 mm 1 mps 690 mmHg 48%
    23:00 +18°C° 0 mm 1 mps 690 mmHg 50%

    Tomorrow, 19 October, Friday

    Time Temperature Precipitation Wind Pressure Humidity
    00:00 +18°C° 0 mm 1 mps 690 mmHg 52%
    01:00 +16°C° 0 mm 1 mps 690 mmHg 54%
    02:00 +16°C° 0 mm 1 mps 690 mmHg 56%
    03:00 +15°C° 0 mm 1 mps 690 mmHg 57%
    04:00 +15°C° 0 mm 1 mps 690 mmHg 58%
    05:00 +14°C° 0 mm 1 mps 690 mmHg 59%
    06:00 +14°C° 0 mm 1 mps 690 mmHg 60%
    07:00 +16°C° 0 mm 1 mps 690 mmHg 53%
    08:00 +19°C° 0 mm 1 mps 691 mmHg 46%
    09:00 +20°C° 0 mm 1 mps 691 mmHg 40%
    10:00 +21°C° 0 mm 1 mps 691 mmHg 36%
    11:00 +22°C° 0 mm 1 mps 691 mmHg 32%
    12:00 +23°C° 0 mm 1 mps 691 mmHg 29%
    13:00 +24°C° 0 mm 1 mps 690 mmHg 28%
    14:00 +24°C° 0 mm 2 mps 690 mmHg 27%
    15:00 +25°C° 0 mm 2 mps 690 mmHg 26%
    16:00 +23°C° 0 mm 2 mps 690 mmHg 29%
    17:00 +22°C° 0 mm 1 mps 690 mmHg 31%
    18:00 +21°C° 0 mm 1 mps 689 mmHg 34%
    19:00 +21°C° 0 mm 1 mps 690 mmHg 36%
    20:00 +20°C° 0 mm 1 mps 690 mmHg 37%
    21:00 +19°C° 0 mm 1 mps 690 mmHg 39%
    22:00 +19°C° 0 mm 1 mps 690 mmHg 40%
    23:00 +18°C° 0 mm 1 mps 689 mmHg 42%

    Day after tomorrow, 20 October, Saturday

    Time Temperature Precipitation Wind Pressure Humidity
    00:00 +18°C° 0 mm 1 mps 689 mmHg 43%
    01:00 +16°C° 0 mm 1 mps 689 mmHg 44%
    02:00 +16°C° 0 mm 1 mps 689 mmHg 45%
    03:00 +16°C° 0 mm 1 mps 689 mmHg 46%
    04:00 +15°C° 0 mm 1 mps 688 mmHg 46%
    05:00 +15°C° 0 mm 1 mps 688 mmHg 47%
    06:00 +15°C° 0 mm 1 mps 688 mmHg 48%
    07:00 +18°C° 0 mm 1 mps 689 mmHg 43%
    08:00 +17°C° 0 mm 0 mps 689 mmHg 37%
    09:00 +19°C° 0 mm 0 mps 690 mmHg 32%
    10:00 +22°C° 0 mm 1 mps 689 mmHg 30%
    11:00 +23°C° 0 mm 1 mps 689 mmHg 28%
    12:00 +24°C° 0 mm 1 mps 689 mmHg 27%
    13:00 +25°C° 0 mm 2 mps 689 mmHg 26%
    14:00 +25°C° 0 mm 2 mps 688 mmHg 26%
    15:00 +25°C° 0 mm 2 mps 688 mmHg 25%
    16:00 +24°C° 0 mm 1 mps 688 mmHg 28%
    17:00 +23°C° 0 mm 1 mps 688 mmHg 30%
    18:00 +22°C° 0 mm 1 mps 688 mmHg 33%
    19:00 +21°C° 0 mm 1 mps 688 mmHg 33%
    20:00 +21°C° 0 mm 1 mps 688 mmHg 34%
    21:00 +20°C° 0 mm 1 mps 688 mmHg 35%
    22:00 +20°C° 0 mm 1 mps 688 mmHg 36%
    23:00 +20°C° 0 mm 1 mps 688 mmHg 36%

    21 October, Sunday

    Time Temperature Precipitation Wind Pressure Humidity
    00:00 +19°C° 0 mm 1 mps 687 mmHg 37%
    01:00 +19°C° 0 mm 1 mps 687 mmHg 38%
    02:00 +19°C° 0 mm 1 mps 687 mmHg 39%
    03:00 +19°C° 0 mm 1 mps 687 mmHg 40%
    04:00 +18°C° 0 mm 1 mps 687 mmHg 41%
    05:00 +18°C° 0 mm 1 mps 687 mmHg 43%
    06:00 +16°C° 0 mm 1 mps 686 mmHg 45%
    07:00 +19°C° 0 mm 1 mps 687 mmHg 41%
    08:00 +20°C° 0 mm 1 mps 687 mmHg 38%
    09:00 +22°C° 0 mm 1 mps 688 mmHg 35%
    10:00 +21°C° 0.1 mm 2 mps 687 mmHg 37%
    11:00 +22°C° 0.1 mm 3 mps 687 mmHg 40%
    12:00 +22°C° 0.1 mm 4 mps 687 mmHg 42%
    13:00 +22°C° 0.1 mm 3 mps 687 mmHg 44%
    14:00 +22°C° 0.1 mm 3 mps 686 mmHg 46%
    15:00 +21°C° 0.1 mm 3 mps 686 mmHg 48%
    16:00 +21°C° 0 mm 3 mps 686 mmHg 51%
    17:00 +20°C° 0 mm 2 mps 686 mmHg 55%
    18:00 +19°C° 0 mm 2 mps 686 mmHg 58%
    19:00 +19°C° 0 mm 2 mps 686 mmHg 60%
    20:00 +18°C° 0 mm 2 mps 686 mmHg 63%
    21:00 +19°C° 0 mm 1 mps 685 mmHg 65%
    22:00 +18°C° 0 mm 1 mps 685 mmHg 66%
    23:00 +18°C° 0 mm 1 mps 685 mmHg 67%

    22 October, Monday

    Time Temperature Precipitation Wind Pressure Humidity
    00:00 +18°C° 0 mm 1 mps 685 mmHg 68%
    01:00 +16°C° 0 mm 1 mps 685 mmHg 69%
    02:00 +16°C° 0 mm 1 mps 685 mmHg 70%
    03:00 +16°C° 0 mm 1 mps 685 mmHg 72%
    04:00 +15°C° 0.1 mm 1 mps 685 mmHg 72%
    05:00 +15°C° 0.1 mm 1 mps 685 mmHg 73%
    06:00 +15°C° 0.1 mm 1 mps 686 mmHg 73%
    07:00 +16°C° 0 mm 1 mps 686 mmHg 68%
    08:00 +19°C° 0 mm 1 mps 686 mmHg 62%
    09:00 +20°C° 0 mm 1 mps 687 mmHg 57%
    10:00 +21°C° 0 mm 1 mps 687 mmHg 52%
    11:00 +21°C° 0 mm 2 mps 687 mmHg 48%
    12:00 +23°C° 0 mm 2 mps 687 mmHg 43%
    13:00 +23°C° 0 mm 2 mps 687 mmHg 41%
    14:00 +24°C° 0 mm 2 mps 686 mmHg 39%
    15:00 +24°C° 0 mm 2 mps 686 mmHg 37%
    16:00 +23°C° 0.1 mm 2 mps 687 mmHg 40%
    17:00 +21°C° 0.1 mm 2 mps 687 mmHg 43%
    18:00 +20°C° 0.1 mm 2 mps 687 mmHg 46%
    19:00 +21°C° 0 mm 1 mps 687 mmHg 48%
    20:00 +20°C° 0 mm 1 mps 688 mmHg 49%
    21:00 +19°C° 0 mm 1 mps 688 mmHg 51%
    22:00 +19°C° 0 mm 1 mps 688 mmHg 52%
    23:00 +19°C° 0 mm 1 mps 688 mmHg 52%

    23 October, Tuesday

    Time Temperature Precipitation Wind Pressure Humidity
    00:00 +18°C° 0 mm 1 mps 688 mmHg 53%
    01:00 +18°C° 0 mm 1 mps 688 mmHg 53%
    02:00 +16°C° 0 mm 1 mps 688 mmHg 54%
    03:00 +16°C° 0 mm 1 mps 688 mmHg 54%
    04:00 +16°C° 0 mm 1 mps 688 mmHg 55%
    05:00 +16°C° 0 mm 1 mps 688 mmHg 55%
    06:00 +15°C° 0 mm 1 mps 688 mmHg 56%
    07:00 +18°C° 0 mm 1 mps 689 mmHg 51%
    08:00 +19°C° 0 mm 1 mps 689 mmHg 47%
    09:00 +21°C° 0 mm 1 mps 689 mmHg 42%
    10:00 +21°C° 0 mm 2 mps 689 mmHg 40%
    11:00 +23°C° 0 mm 2 mps 689 mmHg 38%
    12:00 +24°C° 0 mm 2 mps 689 mmHg 36%
    13:00 +24°C° 0 mm 2 mps 689 mmHg 35%
    14:00 +24°C° 0 mm 2 mps 688 mmHg 34%
    15:00 +25°C° 0 mm 2 mps 688 mmHg 34%
    16:00 +24°C° 0 mm 2 mps 688 mmHg 36%
    17:00 +23°C° 0 mm 2 mps 688 mmHg 39%
    18:00 +21°C° 0 mm 2 mps 689 mmHg 41%
    19:00 +21°C° 0 mm 2 mps 689 mmHg 43%
    20:00 +20°C° 0 mm 2 mps 688 mmHg 45%
    21:00 +20°C° 0 mm 2 mps 688 mmHg 47%
    22:00 +19°C° 0 mm 2 mps 688 mmHg 49%
    23:00 +19°C° 0 mm 2 mps 688 mmHg 50%
    Show more